Regional Weather Roundup
Issued by NWS

Home | Current Version | Previous Version | Text Only | Print | Product List | Glossary Off
Versions: 1 2 3 4 5 6 7 8 9 10 11 12 13 14 15 16 17 18 19 20 21 22 23 24 25 26 27 28 29 30 31 32 33 34 35 36 37 38 39 40 41 42 43 44 45 46 47 48 49 50

000
ASUS43 KBIS 300710
RWRND

NORTH DAKOTA REGIONAL WEATHER ROUNDUP
NATIONAL WEATHER SERVICE BISMARCK ND
200 AM CDT THU JUL 30 2015

NOTE: "FAIR" INDICATES FEW OR NO CLOUDS BELOW 12,000 FEET WITH NO
SIGNIFICANT WEATHER AND/OR OBSTRUCTIONS TO VISIBILITY.


NDZ001>003-009>011-017-300800-
NORTHWEST NORTH DAKOTA

CITY           SKY/WX    TMP DP  RH WIND       PRES   REMARKS
WILLISTON      PTCLDY    57  52  83 N7        30.10R
MINOT          CLEAR     59  52  77 SW8       30.04R
MINOT AFB      CLEAR     57  56  96 W9        30.03R
$$

NDZ018>021-031>035-040>046-300800-
SOUTHWEST NORTH DAKOTA

CITY           SKY/WX    TMP DP  RH WIND       PRES   REMARKS
BISMARCK       CLEAR     57  51  80 SW3       30.10S
DICKINSON      CLEAR     52  45  77 S5        30.13S
GARRISON         N/A     56  51  84 SW3       30.07S
HETTINGER ARPT CLEAR     47  44  90 SW3       30.18S
$$

NDZ004>008-012>016-024-026-027-054-300800-
NORTHEAST NORTH DAKOTA

CITY           SKY/WX    TMP DP  RH WIND       PRES   REMARKS
GRAND FORKS    CLEAR     63  57  81 W8        29.93R
GRND FRKS AFB  CLEAR     65  57  77 W7        29.94S
DEVILS LAKE    CLEAR     64  52  63 W12       29.99R
$$

NDZ022-023-025-028>030-036>039-047>053-300800-
SOUTHEAST NORTH DAKOTA

CITY           SKY/WX    TMP DP  RH WIND       PRES   REMARKS
FARGO          CLEAR     64  56  75 W9        29.97S
JAMESTOWN      CLEAR     63  54  72 W10       30.04R
$$




USA.gov is the U.S. government's official web portal to all federal, state and local government web resources and services.